Location: ?astrovice
(49.6513°N, 14.9287°E)
Time: 22:13:40
(UTC+00:00)

Cosmos 841 Rocket - Pass Details

Date: 09 April 2020
Orbit: 747 x 772 km, 74.0° (Epoch: 28 May)

Event Time Altitude Azimuth Distance (km) Brightness Sun altitude
Rises 20:20:51 0° 336° (NNW) 3,259 8.0 -22.6°
Reaches altitude 10° 20:23:15 10° 336° (NNW) 2,327 7.0 -22.8°
Maximum altitude 20:28:33 89° 252° (WSW) 778 3.4 -23.4°
Enters shadow 20:29:31 61° 160° (SSE) 872 3.4 -23.5°
